This demonstration page uses our WeatherBlox Daily Observations layout. Learn more.

Left ArrowRight Arrow

Hourly Observations for July 13, 2019

Temp ( °F °C ) Dew Point ( °F °C ) Humidity (%) Winds ( mph kmh ) Pressure ( in mb ) Visibility ( mi km ) Precip ( " mm )
12:53 am 00:53 Clear 62 16.7 59 15 90 90 N N/A 29.97 1015 10 16 N/A
1:53 am 01:53 Clear 61 16.1 60 15.6 97 97 N N/A 29.98 1015 10 16 N/A
2:53 am 02:53 Clear 60 15.6 59 15 96 96 N N/A 29.98 1015 8 13 N/A
3:53 am 03:53 Clear 60 15.6 59 15 96 96 N N/A 30.01 1016 7 11 N/A
4:53 am 04:53 Clear 60 15.6 59 15 96 96 N N/A 30.01 1016 9 14 N/A
5:53 am 05:53 Clear 58 14.4 57 13.9 97 97 N N/A 30.02 1017 9 14 N/A
6:53 am 06:53 Sunny 59 15 58 14.4 96 96 N N/A 30.03 1017 8 13 N/A
7:53 am 07:53 Sunny 64 17.8 61 16.1 90 90 N N/A 30.04 1017 10 16 N/A
8:53 am 08:53 Sunny 70 21.1 62 16.7 76 76 N N/A 30.06 1018 10 16 N/A
9:53 am 09:53 Sunny 76 24.4 60 15.6 58 58 N N/A 30.06 1018 10 16 N/A
10:53 am 10:53 Sunny 80 26.7 58 14.4 47 47 VRB 3 6 30.06 1018 10 16 N/A
11:53 am 11:53 Sunny 83 28.3 58 14.4 43 43 N N/A 30.06 1018 10 16 N/A
12:53 pm 12:53 Sunny 86 30 59 15 40 40 VRB 6 9 30.06 1018 10 16 N/A
1:53 pm 13:53 Sunny 86 30 55 12.8 35 35 VRB 5 7 30.04 1017 10 16 N/A
2:53 pm 14:53 Sunny 89 31.7 56 13.3 33 33 W 5 7 30.04 1017 10 16 N/A
3:53 pm 15:53 Sunny 88 31.1 60 15.6 39 39 N N/A 30.02 1017 10 16 N/A
4:53 pm 16:53 Sunny 89 31.7 61 16.1 39 39 VRB 7 11 30.02 1017 10 16 N/A
5:53 pm 17:53 Sunny 89 31.7 61 16.1 39 39 WNW 8 13 30.01 1016 10 16 N/A
7:53 pm 19:53 Sunny 87 30.6 61 16.1 42 42 WNW 9 15 30.01 1016 10 16 N/A
8:53 pm 20:53 Sunny 76 24.4 66 18.9 72 72 N N/A 30.01 1016 10 16 N/A
9:53 pm 21:53 Clear 71 21.7 66 18.9 84 84 N N/A 30.02 1017 10 16 N/A
10:53 pm 22:53 Clear 70 21.1 66 18.9 87 87 N N/A 30.05 1018 10 16 N/A
11:53 pm 23:53 Clear 69 20.6 66 18.9 90 90 N N/A 30.06 1018 10 16 N/A

Powered by AerisWeather